| time (UTC) | temp F | wind direction | speed knots | gust knots | rain 1hr in | rain 24hr in | rain mn in | humidity % | barometer mb |
| 20260904174325 | 76 | 87 | 1.7 | 1.7 | 0.00 | 0.00 | 0.00 | 54 | |
| 20260904174123 | 75 | 102 | 0.0 | 2.6 | 0.00 | 0.00 | 0.00 | 56 | |
| 20260904173919 | 75 | 239 | 0.0 | 2.6 | 0.00 | 0.00 | 0.00 | 56 | |
| 20260904173717 | 75 | 239 | 0.0 | 4.3 | 0.00 | 0.00 | 0.00 | 56 | |
| 20260904173517 | 75 | 270 | 0.0 | 4.3 | 0.00 | 0.00 | 0.00 | 55 | |
| 20260904173313 | 75 | 295 | 0.9 | 4.3 | 0.00 | 0.00 | 0.00 | 53 | |
| 20260904173111 | 75 | 299 | 3.5 | 5.2 | 0.00 | 0.00 | 0.00 | 52 | |
| 20260904172909 | 75 | 303 | 1.7 | 5.2 | 0.00 | 0.00 | 0.00 | 52 | |
| 20260904172707 | 76 | 309 | 0.0 | 6.1 | 0.00 | 0.00 | 0.00 | 51 | |
| 20260904172506 | 75 | 309 | 0.0 | 6.1 | 0.00 | 0.00 | 0.00 | 52 | |
| 20260904172305 | 75 | 87 | 3.5 | 6.1 | 0.00 | 0.00 | 0.00 | 54 | |
| 20260904172102 | 75 | 135 | 1.7 | 5.2 | 0.00 | 0.00 | 0.00 | 55 | |
| 20260904171900 | 75 | 147 | 1.7 | 5.2 | 0.00 | 0.00 | 0.00 | 55 | |
| 20260904171658 | 75 | 216 | 1.7 | 5.2 | 0.00 | 0.00 | 0.00 | 55 | |
| 20260904171456 | 75 | 156 | 0.0 | 5.2 | 0.00 | 0.00 | 0.00 | 57 | |
| 20260904171254 | 75 | 53 | 0.0 | 5.2 | 0.00 | 0.00 | 0.00 | 57 | |
| 20260904171052 | 74 | 64 | 0.9 | 2.6 | 0.00 | 0.00 | 0.00 | 58 | |
| 20260904170850 | 74 | 71 | 0.0 | 2.6 | 0.00 | 0.00 | 0.00 | 59 | |
| 20260904170648 | 74 | 293 | 0.0 | 5.2 | 0.00 | 0.00 | 0.00 | 57 | |
| 20260904170446 | 75 | 277 | 0.9 | 5.2 | 0.00 | 0.00 | 0.00 | 56 | |
| 20260904170244 | 75 | 112 | 0.9 | 4.3 | 0.00 | 0.00 | 0.00 | 57 | |
| 20260904170042 | 75 | 181 | 1.7 | 4.3 | 0.00 | 0.00 | 0.00 | 57 | |
| 20260904165842 | 75 | 146 | 2.6 | 4.3 | 0.00 | 0.00 | 0.00 | 58 | |
| 20260904165436 | 74 | 172 | 0.0 | 5.2 | 0.00 | 0.00 | 0.00 | 58 | |
| 20260904165234 | 73 | 165 | 0.0 | 7.8 | 0.00 | 0.00 | 0.00 | 60 | |
| 20260904165032 | 73 | 82 | 2.6 | 7.8 | 0.00 | 0.00 | 0.00 | 60 | |
| 20260904164832 | 73 | 92 | 2.6 | 7.8 | 0.00 | 0.00 | 0.00 | 60 | |
| 20260904164426 | 73 | 80 | 2.6 | 6.1 | 0.00 | 0.00 | 0.00 | 60 | |
| 20260904164224 | 73 | 102 | 4.3 | 6.1 | 0.00 | 0.00 | 0.00 | 61 | |
| 20260904164022 | 73 | 90 | 4.3 | 6.1 | 0.00 | 0.00 | 0.00 | 61 | |
| 20260904163820 | 73 | 90 | 3.5 | 6.1 | 0.00 | 0.00 | 0.00 | 61 | |
| 20260904163618 | 73 | 122 | 1.7 | 7.8 | 0.00 | 0.00 | 0.00 | 61 | |
| 20260904163416 | 72 | 140 | 3.5 | 7.8 | 0.00 | 0.00 | 0.00 | 61 | |
| 20260904163214 | 72 | 118 | 4.3 | 7.0 | 0.00 | 0.00 | 0.00 | 61 | |
| 20260904163012 | 72 | 95 | 6.1 | 7.0 | 0.00 | 0.00 | 0.00 | 61 | |
| 20260904162812 | 72 | 112 | 3.5 | 7.0 | 0.00 | 0.00 | 0.00 | 60 | |
| 20260904162611 | 72 | 153 | 1.7 | 7.0 | 0.00 | 0.00 | 0.00 | 62 | |
| 20260904162407 | 72 | 56 | 0.0 | 7.0 | 0.00 | 0.00 | 0.00 | 63 | |
| 20260904162205 | 72 | 36 | 0.0 | 7.0 | 0.00 | 0.00 | 0.00 | 64 | |
| 20260904162003 | 72 | 119 | 6.1 | 7.0 | 0.00 | 0.00 | 0.00 | 63 | |
| 20260904161801 | 72 | 118 | 4.3 | 7.0 | 0.00 | 0.00 | 0.00 | 63 | |
| 20260904161601 | 72 | 163 | 2.6 | 6.1 | 0.00 | 0.00 | 0.00 | 63 | |
| 20260904161358 | 72 | 151 | 3.5 | 6.1 | 0.00 | 0.00 | 0.00 | 63 | |
| 20260904161157 | 72 | 132 | 3.5 | 5.2 | 0.00 | 0.00 | 0.00 | 63 | |
| 20260904160953 | 72 | 109 | 4.3 | 5.2 | 0.00 | 0.00 | 0.00 | 65 | |
| 20260904160753 | 72 | 87 | 0.9 | 5.2 | 0.00 | 0.00 | 0.00 | 66 | |
| 20260904160551 | 71 | 87 | 0.9 | 6.1 | 0.00 | 0.00 | 0.00 | 66 | |
| 20260904160347 | 71 | 132 | 3.5 | 6.1 | 0.00 | 0.00 | 0.00 | 67 | |
| 20260904160145 | 71 | 122 | 3.5 | 5.2 | 0.00 | 0.00 | 0.00 | 67 | |
| 20260904155948 | 71 | 111 | 3.5 | 5.2 | 0.00 | 0.00 | 0.00 | 66 | |
| 20260904155945 | 71 | 111 | 3.5 | 5.2 | 0.00 | 0.00 | 0.00 | 66 | |
| 20260904155741 | 71 | 133 | 4.3 | 6.1 | 0.00 | 0.00 | 0.00 | 66 | |
| 20260904155337 | 71 | 122 | 3.5 | 6.1 | 0.00 | 0.00 | 0.00 | 67 | |
| 20260904155135 | 71 | 151 | 2.6 | 6.1 | 0.00 | 0.00 | 0.00 | 68 | |
| 20260904154933 | 70 | 122 | 3.5 | 6.1 | 0.00 | 0.00 | 0.00 | 69 | |
| 20260904154733 | 70 | 151 | 2.6 | 7.0 | 0.00 | 0.00 | 0.00 | 68 | |
| 20260904154529 | 70 | 137 | 3.5 | 7.0 | 0.00 | 0.00 | 0.00 | 70 | |
| 20260904154327 | 70 | 116 | 2.6 | 7.0 | 0.00 | 0.00 | 0.00 | 70 | |
| 20260904154125 | 69 | 127 | 2.6 | 5.2 | 0.00 | 0.00 | 0.00 | 71 | |
| 20260904153924 | 69 | 150 | 3.5 | 5.2 | 0.00 | 0.00 | 0.00 | 72 | |
| 20260904153722 | 69 | 135 | 2.6 | 6.1 | 0.00 | 0.00 | 0.00 | 72 | |
| 20260904153520 | 69 | 113 | 3.5 | 6.1 | 0.00 | 0.00 | 0.00 | 72 | |
| 20260904153318 | 69 | 135 | 4.3 | 6.1 | 0.00 | 0.00 | 0.00 | 72 | |
| 20260904153116 | 69 | 95 | 4.3 | 6.1 | 0.00 | 0.00 | 0.00 | 73 | |
| 20260904152914 | 69 | 137 | 2.6 | 6.1 | 0.00 | 0.00 | 0.00 | 74 | |
| 20260904152712 | 68 | 132 | 2.6 | 6.1 | 0.00 | 0.00 | 0.00 | 74 | |
| 20260904152510 | 68 | 136 | 6.1 | 6.1 | 0.00 | 0.00 | 0.00 | 75 | |
| 20260904152308 | 68 | 123 | 2.6 | 6.1 | 0.00 | 0.00 | 0.00 | 75 | |
| 20260904152106 | 68 | 111 | 4.3 | 5.2 | 0.00 | 0.00 | 0.00 | 74 | |
| 20260904151904 | 68 | 118 | 3.5 | 5.2 | 0.00 | 0.00 | 0.00 | 75 | |
| 20260904151703 | 68 | 112 | 3.5 | 5.2 | 0.00 | 0.00 | 0.00 | 76 | |
| 20260904151501 | 67 | 116 | 4.3 | 5.2 | 0.00 | 0.00 | 0.00 | 76 | |
| 20260904151259 | 67 | 108 | 3.5 | 5.2 | 0.00 | 0.00 | 0.00 | 76 | |
| 20260904151057 | 67 | 94 | 4.3 | 4.3 | 0.00 | 0.00 | 0.00 | 76 | |
| 20260904150855 | 67 | 101 | 4.3 | 4.3 | 0.00 | 0.00 | 0.00 | 76 | |
| 20260904150653 | 66 | 132 | 1.7 | 2.6 | 0.00 | 0.00 | 0.00 | 77 | |
| 20260904150451 | 66 | 144 | 0.9 | 2.6 | 0.00 | 0.00 | 0.00 | 78 | |
| 20260904150249 | 66 | 112 | 2.6 | 2.6 | 0.00 | 0.00 | 0.00 | 78 | |
| 20260904150047 | 65 | 108 | 1.7 | 3.5 | 0.00 | 0.00 | 0.00 | 79 | |
| 20260904145845 | 65 | 130 | 1.7 | 3.5 | 0.00 | 0.00 | 0.00 | 79 | |
| 20260904145643 | 65 | 129 | 0.9 | 2.6 | 0.00 | 0.00 | 0.00 | 80 | |
| 20260904145038 | 64 | 90 | 2.6 | 0.0 | 0.00 | 0.00 | 0.00 | 81 | |
| 20260904144432 | 64 | 53 | 0.0 | 0.0 | 0.00 | 0.00 | 0.00 | 82 | |
| 20260904144232 | 64 | 53 | 0.0 | 0.0 | 0.00 | 0.00 | 0.00 | 82 | |
| 20260904144028 | 63 | 53 | 0.0 | 0.0 | 0.00 | 0.00 | 0.00 | 83 | |
| 20260904143826 | 63 | 53 | 0.0 | 0.0 | 0.00 | 0.00 | 0.00 | 84 | |
| 20260904143624 | 63 | 53 | 0.0 | 0.0 | 0.00 | 0.00 | 0.00 | 85 | |
| 20260904143423 | 63 | 53 | 0.0 | 0.0 | 0.00 | 0.00 | 0.00 | 86 | |
| 20260904143019 | 62 | 53 | 0.0 | 0.0 | 0.00 | 0.00 | 0.00 | 86 | |
| 20260904142817 | 62 | 53 | 0.0 | 0.0 | 0.00 | 0.00 | 0.00 | 86 | |
| 20260904142616 | 62 | 53 | 0.0 | 0.0 | 0.00 | 0.00 | 0.00 | 87 | |
| 20260904142413 | 62 | 53 | 0.0 | 0.0 | 0.00 | 0.00 | 0.00 | 87 | |
| 20260904142211 | 62 | 53 | 0.0 | 0.0 | 0.00 | 0.00 | 0.00 | 87 | |
| 20260904142009 | 62 | 53 | 0.0 | 0.0 | 0.00 | 0.00 | 0.00 | 87 | |
| 20260904141807 | 62 | 53 | 0.0 | 0.0 | 0.00 | 0.00 | 0.00 | 87 | |
| 20260904141605 | 62 | 53 | 0.0 | 0.0 | 0.00 | 0.00 | 0.00 | 87 | |
| 20260904141403 | 62 | 53 | 0.0 | 0.0 | 0.00 | 0.00 | 0.00 | 87 | |
| 20260904141202 | 62 | 53 | 0.0 | 0.0 | 0.00 | 0.00 | 0.00 | 87 | |
| 20260904141000 | 62 | 53 | 0.0 | 0.0 | 0.00 | 0.00 | 0.00 | 87 | |
| 20260904140758 | 62 | 53 | 0.0 | 0.0 | 0.00 | 0.00 | 0.00 | 87 | |
| 20260904140556 | 61 | 53 | 0.0 | 0.0 | 0.00 | 0.00 | 0.00 | 87 | |
| 20260904140354 | 61 | 53 | 0.0 | 0.0 | 0.00 | 0.00 | 0.00 | 88 | |
| 20260904140154 | 61 | 53 | 0.0 | 0.0 | 0.00 | 0.00 | 0.00 | 88 | |
| 20260904135952 | 61 | 53 | 0.0 | 0.0 | 0.00 | 0.00 | 0.00 | 88 | |
| 20260904135748 | 61 | 53 | 0.0 | 0.0 | 0.00 | 0.00 | 0.00 | 88 | |
| 20260904135547 | 61 | 53 | 0.0 | 0.0 | 0.00 | 0.00 | 0.00 | 88 | |
| 20260904135344 | 61 | 53 | 0.0 | 0.0 | 0.00 | 0.00 | 0.00 | 88 | |
| 20260904135143 | 61 | 53 | 0.0 | 0.9 | 0.00 | 0.00 | 0.00 | 88 | |
| 20260904134739 | 61 | 53 | 0.0 | 1.7 | 0.00 | 0.00 | 0.00 | 88 | |
| 20260904134335 | 61 | 63 | 0.0 | 1.7 | 0.00 | 0.00 | 0.00 | 88 | |
| 20260904134133 | 61 | 57 | 0.0 | 1.7 | 0.00 | 0.00 | 0.00 | 88 | |
| 20260904133933 | 61 | 54 | 0.0 | 1.7 | 0.00 | 0.00 | 0.00 | 88 | |
| 20260904133731 | 61 | 71 | 0.9 | 0.0 | 0.00 | 0.00 | 0.00 | 88 | |
| 20260904133325 | 61 | 42 | 0.0 | 0.0 | 0.00 | 0.00 | 0.00 | 88 | |
| 20260904132922 | 61 | 42 | 0.0 | 0.9 | 0.00 | 0.00 | 0.00 | 88 | |
| 20260904132720 | 61 | 82 | 0.0 | 0.9 | 0.00 | 0.00 | 0.00 | 88 | |
| 20260904132518 | 61 | 82 | 0.0 | 0.9 | 0.00 | 0.00 | 0.00 | 88 | |
| 20260904132316 | 61 | 82 | 0.0 | 0.9 | 0.00 | 0.00 | 0.00 | 88 | |
| 20260904132114 | 61 | 60 | 0.0 | 0.0 | 0.00 | 0.00 | 0.00 | 88 | |
| 20260904131912 | 61 | 60 | 0.0 | 0.0 | 0.00 | 0.00 | 0.00 | 88 | |
| 20260904131710 | 61 | 60 | 0.0 | 0.0 | 0.00 | 0.00 | 0.00 | 88 | |
| 20260904131508 | 61 | 60 | 0.0 | 0.0 | 0.00 | 0.00 | 0.00 | 88 | |
| 20260904131306 | 61 | 60 | 0.0 | 0.0 | 0.00 | 0.00 | 0.00 | 88 | |
| 20260904131104 | 61 | 60 | 0.0 | 4.3 | 0.00 | 0.00 | 0.00 | 88 | |
| 20260904130903 | 61 | 60 | 0.0 | 4.3 | 0.00 | 0.00 | 0.00 | 88 | |
| 20260904130701 | 61 | 60 | 0.0 | 4.3 | 0.00 | 0.00 | 0.00 | 88 | |
| 20260904130257 | 61 | 106 | 1.7 | 4.3 | 0.00 | 0.00 | 0.00 | 88 | |
| 20260904130055 | 61 | 108 | 3.5 | 4.3 | 0.00 | 0.00 | 0.00 | 88 | |
| 20260904125853 | 61 | 75 | 0.9 | 4.3 | 0.00 | 0.00 | 0.00 | 88 | |
| 20260904125651 | 60 | 106 | 4.3 | 3.5 | 0.00 | 0.00 | 0.00 | 88 | |
| 20260904125449 | 60 | 75 | 1.7 | 3.5 | 0.00 | 0.00 | 0.00 | 88 | |
| 20260904125247 | 60 | 104 | 2.6 | 3.5 | 0.00 | 0.00 | 0.00 | 88 | |
| 20260904125045 | 60 | 102 | 1.7 | 3.5 | 0.00 | 0.00 | 0.00 | 87 | |
| 20260904124844 | 60 | 106 | 2.6 | 3.5 | 0.00 | 0.00 | 0.00 | 87 | |
| 20260904124642 | 60 | 112 | 0.9 | 3.5 | 0.00 | 0.00 | 0.00 | 87 | |
| 20260904124441 | 60 | 120 | 1.7 | 3.5 | 0.00 | 0.00 | 0.00 | 87 | |
| 20260904124238 | 60 | 106 | 2.6 | 4.3 | 0.00 | 0.00 | 0.00 | 87 | |
| 20260904124036 | 60 | 113 | 1.7 | 4.3 | 0.00 | 0.00 | 0.00 | 87 | |
| 20260904123834 | 60 | 112 | 2.6 | 4.3 | 0.00 | 0.00 | 0.00 | 88 | |
| 20260904123632 | 60 | 99 | 3.5 | 3.5 | 0.00 | 0.00 | 0.00 | 88 | |
| 20260904123430 | 60 | 102 | 2.6 | 3.5 | 0.00 | 0.00 | 0.00 | 88 | |
| 20260904123228 | 60 | 97 | 0.9 | 0.0 | 0.00 | 0.00 | 0.00 | 88 | |
| 20260904123026 | 60 | 113 | 2.6 | 0.0 | 0.00 | 0.00 | 0.00 | 88 | |
| 20260904122824 | 60 | 175 | 0.0 | 0.0 | 0.00 | 0.00 | 0.00 | 87 | |
| 20260904122623 | 60 | 175 | 0.0 | 0.0 | 0.00 | 0.00 | 0.00 | 87 | |
| 20260904122422 | 60 | 175 | 0.0 | 0.0 | 0.00 | 0.00 | 0.00 | 88 | |
| 20260904122219 | 60 | 175 | 0.0 | 0.0 | 0.00 | 0.00 | 0.00 | 88 | |
| 20260904122017 | 60 | 175 | 0.0 | 0.0 | 0.00 | 0.00 | 0.00 | 88 | |
| 20260904121816 | 60 | 175 | 0.0 | 0.0 | 0.00 | 0.00 | 0.00 | 88 | |
| 20260904121613 | 60 | 175 | 0.0 | 0.0 | 0.00 | 0.00 | 0.00 | 88 | |
| 20260904121411 | 60 | 175 | 0.0 | 0.0 | 0.00 | 0.00 | 0.00 | 88 | |
| 20260904121209 | 60 | 175 | 0.0 | 0.0 | 0.00 | 0.00 | 0.00 | 88 | |
| 20260904120805 | 60 | 175 | 0.0 | 0.0 | 0.00 | 0.00 | 0.00 | 88 | |
| 20260904120605 | 60 | 175 | 0.0 | 0.0 | 0.00 | 0.00 | 0.00 | 88 | |
| 20260904120402 | 60 | 175 | 0.0 | 0.0 | 0.00 | 0.00 | 0.00 | 88 | |
| 20260904120200 | 60 | 175 | 0.0 | 0.0 | 0.00 | 0.00 | 0.00 | 88 | |
| 20260904115958 | 60 | 175 | 0.0 | 0.0 | 0.00 | 0.00 | 0.00 | 88 | |
| 20260904115556 | 60 | 175 | 0.0 | 0.0 | 0.00 | 0.00 | 0.00 | 88 | |
| 20260904115352 | 60 | 175 | 0.0 | 0.0 | 0.00 | 0.00 | 0.00 | 88 | |
| 20260904115150 | 60 | 175 | 0.0 | 0.0 | 0.00 | 0.00 | 0.00 | 88 | |
| 20260904114948 | 60 | 175 | 0.0 | 0.0 | 0.00 | 0.00 | 0.00 | 89 | |
| 20260904114746 | 59 | 175 | 0.0 | 0.0 | 0.00 | 0.00 | 0.00 | 88 | |
| 20260904114544 | 60 | 175 | 0.0 | 0.0 | 0.00 | 0.00 | 0.00 | 88 | |
| 20260904114343 | 59 | 175 | 0.0 | 0.0 | 0.00 | 0.00 | 0.00 | 88 | |
| 20260904114141 | 59 | 175 | 0.0 | 0.0 | 0.00 | 0.00 | 0.00 | 88 | |
| 20260904113939 | 59 | 175 | 0.0 | 0.0 | 0.00 | 0.00 | 0.00 | 88 | |
| 20260904113737 | 59 | 175 | 0.0 | 0.0 | 0.00 | 0.00 | 0.00 | 88 | |
| 20260904113535 | 59 | 175 | 0.0 | 0.0 | 0.00 | 0.00 | 0.00 | 88 | |
| 20260904113333 | 59 | 175 | 0.0 | 0.0 | 0.00 | 0.00 | 0.00 | 88 | |
| 20260904113131 | 59 | 175 | 0.0 | 0.0 | 0.00 | 0.00 | 0.00 | 88 | |
| 20260904112929 | 59 | 175 | 0.0 | 0.0 | 0.00 | 0.00 | 0.00 | 88 | |
| 20260904112729 | 59 | 175 | 0.0 | 0.0 | 0.00 | 0.00 | 0.00 | 88 | |
| 20260904112525 | 59 | 175 | 0.0 | 0.0 | 0.00 | 0.00 | 0.00 | 88 | |
| 20260904112324 | 59 | 175 | 0.0 | 0.0 | 0.00 | 0.00 | 0.00 | 88 | |
| 20260904112122 | 59 | 175 | 0.0 | 0.0 | 0.00 | 0.00 | 0.00 | 88 | |
| 20260904111920 | 59 | 175 | 0.0 | 0.0 | 0.00 | 0.00 | 0.00 | 88 | |
| 20260904111718 | 59 | 175 | 0.0 | 0.0 | 0.00 | 0.00 | 0.00 | 88 | |
| 20260904111516 | 59 | 175 | 0.0 | 0.0 | 0.00 | 0.00 | 0.00 | 87 | |
| 20260904111314 | 59 | 175 | 0.0 | 0.0 | 0.00 | 0.00 | 0.00 | 87 | |
| 20260904111113 | 59 | 175 | 0.0 | 0.0 | 0.00 | 0.00 | 0.00 | 87 | |
| 20260904110912 | 59 | 175 | 0.0 | 0.0 | 0.00 | 0.00 | 0.00 | 87 | |
| 20260904110710 | 59 | 175 | 0.0 | 0.0 | 0.00 | 0.00 | 0.00 | 87 | |
| 20260904110306 | 59 | 175 | 0.0 | 0.0 | 0.00 | 0.00 | 0.00 | 87 | |
| 20260904110105 | 59 | 175 | 0.0 | 0.0 | 0.00 | 0.00 | 0.00 | 87 | |
| 20260904105902 | 59 | 175 | 0.0 | 0.0 | 0.00 | 0.00 | 0.00 | 87 | |
| 20260904105659 | 59 | 175 | 0.0 | 0.0 | 0.00 | 0.00 | 0.00 | 87 | |
| 20260904105458 | 59 | 175 | 0.0 | 0.0 | 0.00 | 0.00 | 0.00 | 87 | |
| 20260904105255 | 59 | 175 | 0.0 | 0.0 | 0.00 | 0.00 | 0.00 | 87 | |
| 20260904105053 | 59 | 175 | 0.0 | 0.0 | 0.00 | 0.00 | 0.00 | 86 | |
| 20260904104853 | 59 | 175 | 0.0 | 0.0 | 0.00 | 0.00 | 0.00 | 86 | |
| 20260904104650 | 59 | 175 | 0.0 | 0.0 | 0.00 | 0.00 | 0.00 | 86 | |
| 20260904104447 | 59 | 175 | 0.0 | 0.0 | 0.00 | 0.00 | 0.00 | 86 | |
| 20260904104043 | 59 | 175 | 0.0 | 0.0 | 0.00 | 0.00 | 0.00 | 87 | |
| 20260904103842 | 59 | 175 | 0.0 | 0.0 | 0.00 | 0.00 | 0.00 | 87 | |
| 20260904103642 | 59 | 175 | 0.0 | 0.0 | 0.00 | 0.00 | 0.00 | 87 | |
| 20260904103438 | 59 | 175 | 0.0 | 0.0 | 0.00 | 0.00 | 0.00 | 86 | |
| 20260904103236 | 59 | 175 | 0.0 | 0.0 | 0.00 | 0.00 | 0.00 | 86 | |
| 20260904103034 | 59 | 175 | 0.0 | 0.0 | 0.00 | 0.00 | 0.00 | 86 | |
| 20260904102832 | 59 | 175 | 0.0 | 0.0 | 0.00 | 0.00 | 0.00 | 86 | |
| 20260904102630 | 59 | 175 | 0.0 | 0.0 | 0.00 | 0.00 | 0.00 | 86 | |
| 20260904102428 | 60 | 175 | 0.0 | 0.0 | 0.00 | 0.00 | 0.00 | 86 | |
| 20260904102226 | 59 | 175 | 0.0 | 0.0 | 0.00 | 0.00 | 0.00 | 86 | |
| 20260904102024 | 59 | 175 | 0.0 | 0.0 | 0.00 | 0.00 | 0.00 | 86 | |
| 20260904101823 | 60 | 175 | 0.0 | 0.0 | 0.00 | 0.00 | 0.00 | 86 | |
| 20260904101621 | 60 | 175 | 0.0 | 0.0 | 0.00 | 0.00 | 0.00 | 86 | |
| 20260904101419 | 60 | 175 | 0.0 | 0.0 | 0.00 | 0.00 | 0.00 | 86 | |
| 20260904101217 | 60 | 175 | 0.0 | 0.0 | 0.00 | 0.00 | 0.00 | 86 | |
| 20260904101015 | 59 | 175 | 0.0 | 0.0 | 0.00 | 0.00 | 0.00 | 86 | |
| 20260904100813 | 60 | 175 | 0.0 | 0.0 | 0.00 | 0.00 | 0.00 | 86 | |
| 20260904100611 | 59 | 175 | 0.0 | 0.0 | 0.00 | 0.00 | 0.00 | 86 | |
| 20260904100409 | 59 | 175 | 0.0 | 0.0 | 0.00 | 0.00 | 0.00 | 86 | |
| 20260904100207 | 59 | 175 | 0.0 | 0.0 | 0.00 | 0.00 | 0.00 | 86 | |
| 20260904100006 | 59 | 175 | 0.0 | 0.0 | 0.00 | 0.00 | 0.00 | 86 | |
| 20260904095803 | 60 | 175 | 0.0 | 0.0 | 0.00 | 0.00 | 0.00 | 86 | |
| 20260904095602 | 59 | 175 | 0.0 | 0.0 | 0.00 | 0.00 | 0.00 | 86 | |
| 20260904095400 | 59 | 175 | 0.0 | 0.0 | 0.00 | 0.00 | 0.00 | 86 | |
| 20260904095159 | 59 | 175 | 0.0 | 0.0 | 0.00 | 0.00 | 0.00 | 86 | |
| 20260904094956 | 60 | 175 | 0.0 | 0.0 | 0.00 | 0.00 | 0.00 | 86 | |
| 20260904094754 | 60 | 175 | 0.0 | 0.0 | 0.00 | 0.00 | 0.00 | 86 | |
| 20260904094552 | 60 | 175 | 0.0 | 0.0 | 0.00 | 0.00 | 0.00 | 86 | |
| 20260904094350 | 60 | 175 | 0.0 | 0.0 | 0.00 | 0.00 | 0.00 | 86 | |
| 20260904094148 | 60 | 175 | 0.0 | 0.0 | 0.00 | 0.00 | 0.00 | 86 | |
| 20260904093946 | 59 | 175 | 0.0 | 0.0 | 0.00 | 0.00 | 0.00 | 86 | |
| 20260904093746 | 60 | 175 | 0.0 | 0.0 | 0.00 | 0.00 | 0.00 | 86 | |
| 20260904093543 | 60 | 175 | 0.0 | 0.0 | 0.00 | 0.00 | 0.00 | 85 | |
| 20260904093341 | 60 | 175 | 0.0 | 0.0 | 0.00 | 0.00 | 0.00 | 85 | |
| 20260904093139 | 60 | 175 | 0.0 | 0.0 | 0.00 | 0.00 | 0.00 | 85 | |
| 20260904092937 | 60 | 175 | 0.0 | 0.0 | 0.00 | 0.00 | 0.00 | 85 | |
| 20260904092735 | 60 | 175 | 0.0 | 0.0 | 0.00 | 0.00 | 0.00 | 85 | |
| 20260904092533 | 60 | 175 | 0.0 | 0.0 | 0.00 | 0.00 | 0.00 | 85 | |
| 20260904092333 | 60 | 175 | 0.0 | 0.0 | 0.00 | 0.00 | 0.00 | 85 | |
| 20260904092129 | 60 | 175 | 0.0 | 0.0 | 0.00 | 0.00 | 0.00 | 85 | |
| 20260904091929 | 60 | 175 | 0.0 | 0.0 | 0.00 | 0.00 | 0.00 | 85 | |
| 20260904091524 | 60 | 175 | 0.0 | 0.0 | 0.00 | 0.00 | 0.00 | 85 | |
| 20260904091322 | 60 | 175 | 0.0 | 0.0 | 0.00 | 0.00 | 0.00 | 85 | |
| 20260904091120 | 60 | 175 | 0.0 | 0.0 | 0.00 | 0.00 | 0.00 | 85 | |
| 20260904090918 | 60 | 175 | 0.0 | 0.0 | 0.00 | 0.00 | 0.00 | 85 | |
| 20260904090716 | 60 | 175 | 0.0 | 0.0 | 0.00 | 0.00 | 0.00 | 85 | |
| 20260904090514 | 60 | 175 | 0.0 | 0.0 | 0.00 | 0.00 | 0.00 | 85 | |
| 20260904090312 | 60 | 175 | 0.0 | 0.0 | 0.00 | 0.00 | 0.00 | 85 | |
| 20260904090110 | 60 | 175 | 0.0 | 0.0 | 0.00 | 0.00 | 0.00 | 85 | |
| 20260904085908 | 60 | 175 | 0.0 | 0.0 | 0.00 | 0.00 | 0.00 | 85 | |
| 20260904085305 | 60 | 175 | 0.0 | 0.0 | 0.00 | 0.00 | 0.00 | 85 | |
| 20260904085101 | 60 | 175 | 0.0 | 0.0 | 0.00 | 0.00 | 0.00 | 84 | |
| 20260904084859 | 60 | 175 | 0.0 | 0.0 | 0.00 | 0.00 | 0.00 | 84 | |
| 20260904084657 | 60 | 175 | 0.0 | 0.0 | 0.00 | 0.00 | 0.00 | 84 | |
| 20260904084455 | 60 | 175 | 0.0 | 0.0 | 0.00 | 0.00 | 0.00 | 84 | |
| 20260904084255 | 60 | 175 | 0.0 | 0.0 | 0.00 | 0.00 | 0.00 | 84 | |
| 20260904084051 | 60 | 175 | 0.0 | 0.0 | 0.00 | 0.00 | 0.00 | 84 | |
| 20260904083849 | 60 | 175 | 0.0 | 0.0 | 0.00 | 0.00 | 0.00 | 84 | |
| 20260904083647 | 60 | 175 | 0.0 | 0.0 | 0.00 | 0.00 | 0.00 | 84 | |
| 20260904083445 | 60 | 175 | 0.0 | 0.0 | 0.00 | 0.00 | 0.00 | 84 | |
| 20260904083244 | 60 | 175 | 0.0 | 0.0 | 0.00 | 0.00 | 0.00 | 84 | |
| 20260904083044 | 61 | 175 | 0.0 | 0.0 | 0.00 | 0.00 | 0.00 | 84 | |
| 20260904082840 | 61 | 175 | 0.0 | 0.0 | 0.00 | 0.00 | 0.00 | 84 | |
| 20260904082638 | 61 | 175 | 0.0 | 0.0 | 0.00 | 0.00 | 0.00 | 84 | |
| 20260904082436 | 61 | 175 | 0.0 | 0.0 | 0.00 | 0.00 | 0.00 | 84 | |
| 20260904082234 | 61 | 175 | 0.0 | 0.0 | 0.00 | 0.00 | 0.00 | 84 | |
| 20260904082032 | 61 | 175 | 0.0 | 0.0 | 0.00 | 0.00 | 0.00 | 84 | |
| 20260904081830 | 61 | 175 | 0.0 | 0.0 | 0.00 | 0.00 | 0.00 | 84 | |
| 20260904081628 | 61 | 175 | 0.0 | 0.0 | 0.00 | 0.00 | 0.00 | 84 | |
| 20260904081426 | 61 | 175 | 0.0 | 0.0 | 0.00 | 0.00 | 0.00 | 84 | |
| 20260904081224 | 61 | 175 | 0.0 | 0.0 | 0.00 | 0.00 | 0.00 | 84 | |
| 20260904081024 | 61 | 175 | 0.0 | 0.0 | 0.00 | 0.00 | 0.00 | 84 | |
| 20260904080821 | 61 | 175 | 0.0 | 0.0 | 0.00 | 0.00 | 0.00 | 84 | |
| 20260904080619 | 61 | 175 | 0.0 | 0.0 | 0.00 | 0.00 | 0.00 | 84 | |
| 20260904080417 | 61 | 175 | 0.0 | 0.0 | 0.00 | 0.00 | 0.00 | 84 | |
| 20260904080215 | 61 | 175 | 0.0 | 0.0 | 0.00 | 0.00 | 0.00 | 84 | |
| 20260904080013 | 61 | 175 | 0.0 | 0.0 | 0.00 | 0.00 | 0.00 | 84 | |
| 20260904075811 | 61 | 175 | 0.0 | 0.0 | 0.00 | 0.00 | 0.00 | 85 | |
| 20260904075609 | 61 | 175 | 0.0 | 0.0 | 0.00 | 0.00 | 0.00 | 85 | |
| 20260904075205 | 61 | 175 | 0.0 | 0.0 | 0.00 | 0.00 | 0.00 | 85 | |
| 20260904075004 | 61 | 175 | 0.0 | 0.0 | 0.00 | 0.00 | 0.00 | 84 | |
| 20260904074804 | 61 | 175 | 0.0 | 0.0 | 0.00 | 0.00 | 0.00 | 84 | |
| 20260904074600 | 61 | 175 | 0.0 | 0.0 | 0.00 | 0.00 | 0.00 | 84 | |
| 20260904074358 | 61 | 175 | 0.0 | 0.0 | 0.00 | 0.00 | 0.00 | 84 | |
| 20260904074156 | 61 | 175 | 0.0 | 0.0 | 0.00 | 0.00 | 0.00 | 84 | |
| 20260904073954 | 61 | 175 | 0.0 | 0.0 | 0.00 | 0.00 | 0.00 | 84 | |
| 20260904073752 | 61 | 175 | 0.0 | 0.0 | 0.00 | 0.00 | 0.00 | 84 | |
| 20260904073550 | 61 | 175 | 0.0 | 0.0 | 0.00 | 0.00 | 0.00 | 84 | |
| 20260904073348 | 61 | 175 | 0.0 | 0.0 | 0.00 | 0.00 | 0.00 | 84 | |
| 20260904073146 | 61 | 175 | 0.0 | 0.0 | 0.00 | 0.00 | 0.00 | 84 | |
| 20260904072944 | 61 | 175 | 0.0 | 0.0 | 0.00 | 0.00 | 0.00 | 84 | |
| 20260904072745 | 61 | 175 | 0.0 | 0.0 | 0.00 | 0.00 | 0.00 | 83 | |
| 20260904072543 | 61 | 175 | 0.0 | 0.0 | 0.00 | 0.00 | 0.00 | 83 | |
| 20260904072339 | 61 | 175 | 0.0 | 0.0 | 0.00 | 0.00 | 0.00 | 83 | |
| 20260904072137 | 61 | 175 | 0.0 | 0.0 | 0.00 | 0.00 | 0.00 | 83 | |
| 20260904071935 | 61 | 175 | 0.0 | 0.0 | 0.00 | 0.00 | 0.00 | 83 | |
| 20260904071533 | 62 | 175 | 0.0 | 0.0 | 0.00 | 0.00 | 0.00 | 83 | |
| 20260904071329 | 62 | 175 | 0.0 | 0.0 | 0.00 | 0.00 | 0.00 | 84 | |
| 20260904071127 | 62 | 175 | 0.0 | 0.0 | 0.00 | 0.00 | 0.00 | 84 | |
| 20260904070925 | 62 | 175 | 0.0 | 0.0 | 0.00 | 0.00 | 0.00 | 84 | |
| 20260904070724 | 62 | 175 | 0.0 | 0.0 | 0.00 | 0.00 | 0.00 | 84 | |
| 20260904070522 | 62 | 175 | 0.0 | 0.0 | 0.00 | 0.00 | 0.00 | 83 | |
| 20260904070320 | 62 | 175 | 0.0 | 0.0 | 0.00 | 0.00 | 0.00 | 83 | |
| 20260904070118 | 62 | 175 | 0.0 | 0.0 | 0.00 | 0.00 | 0.00 | 83 | |
| 20260904065916 | 62 | 175 | 0.0 | 0.0 | 0.00 | 0.00 | 0.00 | 83 | |
| 20260904065714 | 62 | 175 | 0.0 | 0.0 | 0.00 | 0.00 | 0.00 | 83 | |
| 20260904065512 | 62 | 175 | 0.0 | 0.0 | 0.00 | 0.00 | 0.00 | 84 | |
| 20260904065310 | 62 | 175 | 0.0 | 0.0 | 0.00 | 0.00 | 0.00 | 83 | |
| 20260904065108 | 62 | 175 | 0.0 | 0.0 | 0.00 | 0.00 | 0.00 | 83 | |
| 20260904064906 | 62 | 175 | 0.0 | 0.0 | 0.00 | 0.00 | 0.00 | 83 | |
| 20260904064301 | 62 | 175 | 0.0 | 0.0 | 0.00 | 0.00 | 0.00 | 83 | |
| 20260904064059 | 62 | 175 | 0.0 | 0.0 | 0.00 | 0.00 | 0.00 | 82 | |
| 20260904063857 | 62 | 175 | 0.0 | 0.0 | 0.00 | 0.00 | 0.00 | 82 | |
| 20260904063655 | 62 | 175 | 0.0 | 0.0 | 0.00 | 0.00 | 0.00 | 82 | |
| 20260904063453 | 62 | 175 | 0.0 | 0.0 | 0.00 | 0.00 | 0.00 | 82 | |
| 20260904063251 | 62 | 175 | 0.0 | 0.0 | 0.00 | 0.00 | 0.00 | 82 | |
| 20260904063049 | 62 | 175 | 0.0 | 0.0 | 0.00 | 0.00 | 0.00 | 81 | |
| 20260904062847 | 62 | 175 | 0.0 | 0.0 | 0.00 | 0.00 | 0.00 | 81 | |
| 20260904062647 | 62 | 175 | 0.0 | 0.0 | 0.00 | 0.00 | 0.00 | 81 | |
| 20260904062443 | 63 | 175 | 0.0 | 0.0 | 0.00 | 0.00 | 0.00 | 81 | |
| 20260904062242 | 63 | 175 | 0.0 | 0.0 | 0.00 | 0.00 | 0.00 | 81 | |
| 20260904062040 | 63 | 175 | 0.0 | 0.0 | 0.00 | 0.00 | 0.00 | 81 | |
| 20260904061838 | 63 | 175 | 0.0 | 0.0 | 0.00 | 0.00 | 0.00 | 81 | |
| 20260904061636 | 63 | 175 | 0.0 | 0.0 | 0.00 | 0.00 | 0.00 | 81 | |
| 20260904061434 | 63 | 175 | 0.0 | 0.0 | 0.00 | 0.00 | 0.00 | 81 | |
| 20260904061232 | 63 | 175 | 0.0 | 0.0 | 0.00 | 0.00 | 0.00 | 81 | |
| 20260904061030 | 63 | 175 | 0.0 | 0.0 | 0.00 | 0.00 | 0.00 | 81 | |
| 20260904060828 | 63 | 175 | 0.0 | 0.0 | 0.00 | 0.00 | 0.00 | 81 | |
| 20260904060626 | 63 | 175 | 0.0 | 0.0 | 0.00 | 0.00 | 0.00 | 81 | |
| 20260904060424 | 63 | 175 | 0.0 | 0.0 | 0.00 | 0.00 | 0.00 | 81 | |
| 20260904060223 | 63 | 175 | 0.0 | 0.0 | 0.00 | 0.00 | 0.00 | 81 | |
| 20260904060021 | 63 | 175 | 0.0 | 0.0 | 0.00 | 0.00 | 0.00 | 81 | |
| 20260904055819 | 63 | 175 | 0.0 | 0.0 | 0.00 | 0.00 | 0.00 | 81 | |
| 20260904055617 | 63 | 175 | 0.0 | 0.0 | 0.00 | 0.00 | 0.00 | 81 | |
| 20260904055415 | 63 | 175 | 0.0 | 0.0 | 0.00 | 0.00 | 0.00 | 81 | |
| 20260904055213 | 64 | 175 | 0.0 | 0.0 | 0.00 | 0.00 | 0.00 | 81 | |
| 20260904055011 | 63 | 175 | 0.0 | 0.0 | 0.00 | 0.00 | 0.00 | 81 | |
| 20260904054809 | 63 | 175 | 0.0 | 0.0 | 0.00 | 0.00 | 0.00 | 81 | |
| 20260904054607 | 64 | 175 | 0.0 | 0.0 | 0.00 | 0.00 | 0.00 | 81 | |
| 20260904054405 | 63 | 175 | 0.0 | 0.0 | 0.00 | 0.00 | 0.00 | 80 | |
| 20260904054203 | 63 | 175 | 0.0 | 0.0 | 0.00 | 0.00 | 0.00 | 80 | |
| 20260904054002 | 63 | 175 | 0.0 | 0.0 | 0.00 | 0.00 | 0.00 | 80 | |
| 20260904053800 | 63 | 175 | 0.0 | 0.0 | 0.00 | 0.00 | 0.00 | 80 | |
| 20260904053558 | 64 | 175 | 0.0 | 0.0 | 0.00 | 0.00 | 0.00 | 80 | |
| 20260904053359 | 64 | 175 | 0.0 | 0.0 | 0.00 | 0.00 | 0.00 | 80 | |
| 20260904053154 | 64 | 175 | 0.0 | 0.0 | 0.00 | 0.00 | 0.00 | 80 | |
| 20260904052952 | 64 | 175 | 0.0 | 0.0 | 0.00 | 0.00 | 0.00 | 80 | |
| 20260904052750 | 64 | 175 | 0.0 | 0.0 | 0.00 | 0.00 | 0.00 | 80 | |
| 20260904052548 | 64 | 175 | 0.0 | 0.0 | 0.00 | 0.00 | 0.00 | 80 | |
| 20260904052346 | 64 | 175 | 0.0 | 0.0 | 0.00 | 0.00 | 0.00 | 80 | |
| 20260904052144 | 64 | 175 | 0.0 | 0.0 | 0.00 | 0.00 | 0.00 | 80 | |
| 20260904051942 | 64 | 175 | 0.0 | 0.0 | 0.00 | 0.00 | 0.00 | 80 | |
| 20260904051539 | 64 | 175 | 0.0 | 0.0 | 0.00 | 0.00 | 0.00 | 80 | |
| 20260904051337 | 64 | 175 | 0.0 | 0.0 | 0.00 | 0.00 | 0.00 | 80 | |
| 20260904051135 | 64 | 175 | 0.0 | 0.0 | 0.00 | 0.00 | 0.00 | 79 | |
| 20260904050933 | 64 | 175 | 0.0 | 0.0 | 0.00 | 0.00 | 0.00 | 79 | |
| 20260904050731 | 64 | 175 | 0.0 | 0.0 | 0.00 | 0.00 | 0.00 | 79 | |
| 20260904050529 | 64 | 175 | 0.0 | 0.0 | 0.00 | 0.00 | 0.00 | 79 | |
| 20260904050327 | 64 | 175 | 0.0 | 0.0 | 0.00 | 0.00 | 0.00 | 79 | |
| 20260904050125 | 64 | 175 | 0.0 | 0.0 | 0.00 | 0.00 | 0.00 | 79 | |
| 20260904045923 | 64 | 175 | 0.0 | 0.0 | 0.00 | 0.00 | 0.00 | 79 | |
| 20260904045722 | 65 | 175 | 0.0 | 0.0 | 0.00 | 0.00 | 0.00 | 79 | |
| 20260904045521 | 65 | 175 | 0.0 | 0.0 | 0.00 | 0.00 | 0.00 | 78 | |
| 20260904045320 | 65 | 175 | 0.0 | 0.0 | 0.00 | 0.00 | 0.00 | 78 | |
| 20260904045118 | 65 | 175 | 0.0 | 0.0 | 0.00 | 0.00 | 0.00 | 78 | |
| 20260904044916 | 65 | 175 | 0.0 | 0.0 | 0.00 | 0.00 | 0.00 | 78 | |
| 20260904044712 | 65 | 175 | 0.0 | 0.0 | 0.00 | 0.00 | 0.00 | 78 | |
| 20260904044512 | 65 | 175 | 0.0 | 0.0 | 0.00 | 0.00 | 0.00 | 78 | |
| 20260904044308 | 65 | 175 | 0.0 | 0.0 | 0.00 | 0.00 | 0.00 | 77 | |
| 20260904043906 | 65 | 175 | 0.0 | 0.0 | 0.00 | 0.00 | 0.00 | 77 | |
| 20260904043703 | 65 | 175 | 0.0 | 0.0 | 0.00 | 0.00 | 0.00 | 77 | |
| 20260904043502 | 65 | 175 | 0.0 | 0.0 | 0.00 | 0.00 | 0.00 | 76 | |
| 20260904043259 | 65 | 175 | 0.0 | 0.0 | 0.00 | 0.00 | 0.00 | 76 | |
| 20260904042855 | 66 | 175 | 0.0 | 0.0 | 0.00 | 0.00 | 0.00 | 75 | |
| 20260904042653 | 66 | 175 | 0.0 | 0.0 | 0.00 | 0.00 | 0.00 | 75 | |
| 20260904042451 | 66 | 175 | 0.0 | 0.0 | 0.00 | 0.00 | 0.00 | 75 | |
| 20260904042249 | 66 | 175 | 0.0 | 0.0 | 0.00 | 0.00 | 0.00 | 75 | |
| 20260904042047 | 66 | 175 | 0.0 | 0.0 | 0.00 | 0.00 | 0.00 | 76 | |
| 20260904041643 | 66 | 175 | 0.0 | 0.0 | 0.00 | 0.00 | 0.00 | 76 | |
| 20260904041441 | 66 | 175 | 0.0 | 0.0 | 0.00 | 0.00 | 0.00 | 76 | |
| 20260904041240 | 66 | 175 | 0.0 | 0.0 | 0.00 | 0.00 | 0.00 | 76 | |
| 20260904041038 | 66 | 175 | 0.0 | 0.0 | 0.00 | 0.00 | 0.00 | 76 | |
| 20260904040836 | 66 | 175 | 0.0 | 0.0 | 0.00 | 0.00 | 0.00 | 76 | |
| 20260904040636 | 66 | 175 | 0.0 | 0.0 | 0.00 | 0.00 | 0.00 | 75 | |
| 20260904040432 | 66 | 175 | 0.0 | 0.0 | 0.00 | 0.00 | 0.00 | 75 | |
| 20260904040230 | 66 | 175 | 0.0 | 0.0 | 0.00 | 0.00 | 0.00 | 76 | |
| 20260904040028 | 66 | 175 | 0.0 | 0.0 | 0.00 | 0.00 | 0.00 | 75 | |
| 20260904035826 | 66 | 175 | 0.0 | 0.0 | 0.00 | 0.00 | 0.00 | 75 | |
| 20260904035624 | 66 | 175 | 0.0 | 0.0 | 0.00 | 0.00 | 0.00 | 75 | |
| 20260904035422 | 66 | 175 | 0.0 | 0.0 | 0.00 | 0.00 | 0.00 | 75 | |
| 20260904035221 | 66 | 175 | 0.0 | 0.0 | 0.00 | 0.00 | 0.00 | 75 | |
| 20260904035019 | 66 | 175 | 0.0 | 0.0 | 0.00 | 0.00 | 0.00 | 75 | |
| 20260904034615 | 66 | 175 | 0.0 | 0.0 | 0.00 | 0.00 | 0.00 | 74 | |
| 20260904034413 | 66 | 175 | 0.0 | 0.0 | 0.00 | 0.00 | 0.00 | 74 | |
| 20260904033807 | 67 | 175 | 0.0 | 0.0 | 0.00 | 0.00 | 0.00 | 73 | |
| 20260904033605 | 67 | 175 | 0.0 | 0.0 | 0.00 | 0.00 | 0.00 | 73 | |
| 20260904033403 | 67 | 175 | 0.0 | 0.0 | 0.00 | 0.00 | 0.00 | 73 | |
| 20260904033000 | 67 | 175 | 0.0 | 0.0 | 0.00 | 0.00 | 0.00 | 73 | |
| 20260904032758 | 67 | 175 | 0.0 | 0.0 | 0.00 | 0.00 | 0.00 | 72 | |
| 20260904032354 | 67 | 175 | 0.0 | 0.9 | 0.00 | 0.00 | 0.00 | 72 | |
| 20260904032152 | 67 | 274 | 0.0 | 0.0 | 0.00 | 0.00 | 0.00 | 72 | |
| 20260904031950 | 67 | 274 | 0.0 | 0.0 | 0.00 | 0.00 | 0.00 | 71 | |
| 20260904031748 | 68 | 274 | 0.0 | 0.0 | 0.00 | 0.00 | 0.00 | 71 | |
| 20260904031546 | 68 | 274 | 0.0 | 0.0 | 0.00 | 0.00 | 0.00 | 71 | |
| 20260904031344 | 68 | 274 | 0.0 | 0.0 | 0.00 | 0.00 | 0.00 | 71 | |
| 20260904031142 | 68 | 274 | 0.0 | 0.0 | 0.00 | 0.00 | 0.00 | 71 | |
| 20260904030941 | 68 | 274 | 0.0 | 0.0 | 0.00 | 0.00 | 0.00 | 71 | |
| 20260904030739 | 68 | 274 | 0.0 | 2.6 | 0.00 | 0.00 | 0.00 | 71 | |
| 20260904030537 | 68 | 274 | 0.0 | 2.6 | 0.00 | 0.00 | 0.00 | 71 | |
| 20260904030335 | 68 | 274 | 0.0 | 2.6 | 0.00 | 0.00 | 0.00 | 71 | |
| 20260904030133 | 68 | 274 | 0.0 | 4.3 | 0.00 | 0.00 | 0.00 | 70 | |
| 20260904025931 | 68 | 285 | 0.9 | 4.3 | 0.00 | 0.00 | 0.00 | 70 | |
| 20260904025729 | 68 | 278 | 0.0 | 5.2 | 0.00 | 0.00 | 0.00 | 71 | |
| 20260904025527 | 68 | 285 | 2.6 | 5.2 | 0.00 | 0.00 | 0.00 | 71 | |
| 20260904025325 | 68 | 282 | 0.9 | 5.2 | 0.00 | 0.00 | 0.00 | 70 | |
| 20260904025123 | 68 | 277 | 1.7 | 6.1 | 0.00 | 0.00 | 0.00 | 70 | |
| 20260904024922 | 68 | 286 | 3.5 | 6.1 | 0.00 | 0.00 | 0.00 | 70 | |
| 20260904024720 | 69 | 289 | 1.7 | 3.5 | 0.00 | 0.00 | 0.00 | 69 | |
| 20260904024518 | 69 | 285 | 1.7 | 3.5 | 0.00 | 0.00 | 0.00 | 69 | |
| 20260904024316 | 69 | 285 | 4.3 | 3.5 | 0.00 | 0.00 | 0.00 | 69 | |
| 20260904024114 | 69 | 279 | 1.7 | 5.2 | 0.00 | 0.00 | 0.00 | 69 | |
| 20260904023912 | 69 | 268 | 1.7 | 5.2 | 0.00 | 0.00 | 0.00 | 68 | |
| 20260904023710 | 69 | 271 | 1.7 | 7.0 | 0.00 | 0.00 | 0.00 | 68 | |
| 20260904023508 | 69 | 257 | 3.5 | 7.0 | 0.00 | 0.00 | 0.00 | 68 | |
| 20260904023308 | 69 | 251 | 0.0 | 7.0 | 0.00 | 0.00 | 0.00 | 67 | |
| 20260904023104 | 69 | 274 | 0.0 | 5.2 | 0.00 | 0.00 | 0.00 | 68 | |
| 20260904022902 | 69 | 282 | 4.3 | 5.2 | 0.00 | 0.00 | 0.00 | 67 | |
| 20260904022700 | 69 | 288 | 1.7 | 6.1 | 0.00 | 0.00 | 0.00 | 66 | |
| 20260904022458 | 70 | 265 | 0.9 | 6.1 | 0.00 | 0.00 | 0.00 | 67 | |
| 20260904022256 | 70 | 293 | 1.7 | 6.1 | 0.00 | 0.00 | 0.00 | 66 | |
| 20260904022054 | 70 | 285 | 2.6 | 7.0 | 0.00 | 0.00 | 0.00 | 66 | |
| 20260904021852 | 70 | 272 | 4.3 | 7.0 | 0.00 | 0.00 | 0.00 | 66 | |
| 20260904021650 | 70 | 274 | 5.2 | 6.1 | 0.00 | 0.00 | 0.00 | 65 | |
| 20260904021448 | 71 | 295 | 3.5 | 6.1 | 0.00 | 0.00 | 0.00 | 64 | |
| 20260904021246 | 71 | 277 | 2.6 | 6.1 | 0.00 | 0.00 | 0.00 | 64 | |
| 20260904021045 | 71 | 289 | 0.9 | 7.0 | 0.00 | 0.00 | 0.00 | 63 | |
| 20260904020843 | 70 | 264 | 3.5 | 7.0 | 0.00 | 0.00 | 0.00 | 63 | |
| 20260904020641 | 71 | 295 | 3.5 | 7.8 | 0.00 | 0.00 | 0.00 | 63 | |
| 20260904020439 | 71 | 278 | 6.1 | 7.8 | 0.00 | 0.00 | 0.00 | 63 | |
| 20260904020237 | 71 | 278 | 6.1 | 8.7 | 0.00 | 0.00 | 0.00 | 63 | |
| 20260904020036 | 71 | 267 | 7.0 | 8.7 | 0.00 | 0.00 | 0.00 | 62 | |
| 20260904015833 | 71 | 270 | 7.0 | 8.7 | 0.00 | 0.00 | 0.00 | 62 | |
| 20260904015632 | 72 | 261 | 7.0 | 7.0 | 0.00 | 0.00 | 0.00 | 61 | |
| 20260904015429 | 72 | 278 | 5.2 | 7.0 | 0.00 | 0.00 | 0.00 | 60 | |
| 20260904015227 | 72 | 265 | 2.6 | 8.7 | 0.00 | 0.00 | 0.00 | 60 | |
| 20260904015027 | 72 | 268 | 5.2 | 8.7 | 0.00 | 0.00 | 0.00 | 60 | |
| 20260904014825 | 72 | 272 | 3.5 | 8.7 | 0.00 | 0.00 | 0.00 | 60 | |
| 20260904014623 | 72 | 278 | 4.3 | 12.2 | 0.00 | 0.00 | 0.00 | 60 | |
| 20260904014419 | 72 | 279 | 7.0 | 12.2 | 0.00 | 0.00 | 0.00 | 60 | |
| 20260904014219 | 72 | 272 | 7.0 | 11.3 | 0.00 | 0.00 | 0.00 | 59 | |
| 20260904014015 | 72 | 258 | 9.6 | 11.3 | 0.00 | 0.00 | 0.00 | 59 | |
| 20260904013815 | 72 | 265 | 7.8 | 11.3 | 0.00 | 0.00 | 0.00 | 59 | |
| 20260904013613 | 73 | 270 | 5.2 | 8.7 | 0.00 | 0.00 | 0.00 | 59 | |
| 20260904013409 | 73 | 254 | 7.8 | 8.7 | 0.00 | 0.00 | 0.00 | 58 | |
| 20260904013209 | 73 | 260 | 8.7 | 10.4 | 0.00 | 0.00 | 0.00 | 58 | |
| 20260904013007 | 73 | 271 | 7.8 | 10.4 | 0.00 | 0.00 | 0.00 | 58 | |
| 20260904012803 | 73 | 253 | 5.2 | 10.4 | 0.00 | 0.00 | 0.00 | 58 | |
| 20260904012601 | 73 | 258 | 10.4 | 11.3 | 0.00 | 0.00 | 0.00 | 57 | |
| 20260904012401 | 73 | 268 | 6.1 | 11.3 | 0.00 | 0.00 | 0.00 | 58 | |
| 20260904012159 | 73 | 270 | 9.6 | 13.0 | 0.00 | 0.00 | 0.00 | 58 | |
| 20260904011956 | 73 | 267 | 7.8 | 13.0 | 0.00 | 0.00 | 0.00 | 58 | |
| 20260904011755 | 73 | 264 | 4.3 | 13.0 | 0.00 | 0.00 | 0.00 | 58 | |
| 20260904011552 | 73 | 268 | 8.7 | 12.2 | 0.00 | 0.00 | 0.00 | 58 | |
| 20260904011350 | 73 | 296 | 4.3 | 12.2 | 0.00 | 0.00 | 0.00 | 58 | |
| 20260904010341 | 74 | 277 | 8.7 | 13.0 | 0.00 | 0.00 | 0.00 | 57 | |
| 20260904010138 | 74 | 258 | 11.3 | 12.2 | 0.00 | 0.00 | 0.00 | 57 | |
| 20260904005936 | 74 | 261 | 4.3 | 12.2 | 0.00 | 0.00 | 0.00 | 57 | |
| 20260904005734 | 74 | 285 | 5.2 | 11.3 | 0.00 | 0.00 | 0.00 | 58 | |
| 20260904005532 | 74 | 272 | 7.8 | 11.3 | 0.00 | 0.00 | 0.00 | 58 | |
| 20260904005330 | 74 | 260 | 11.3 | 11.3 | 0.00 | 0.00 | 0.00 | 58 | |
| 20260904005130 | 74 | 265 | 6.1 | 12.2 | 0.00 | 0.00 | 0.00 | 58 | |
| 20260904004928 | 74 | 268 | 8.7 | 12.2 | 0.00 | 0.00 | 0.00 | 57 | |
| 20260904004726 | 75 | 277 | 7.8 | 11.3 | 0.00 | 0.00 | 0.00 | 57 | |
| 20260904004522 | 75 | 251 | 7.0 | 11.3 | 0.00 | 0.00 | 0.00 | 57 | |
| 20260904004322 | 75 | 274 | 4.3 | 11.3 | 0.00 | 0.00 | 0.00 | 57 | |
| 20260904004118 | 75 | 255 | 9.6 | 13.0 | 0.00 | 0.00 | 0.00 | 56 | |
| 20260904003918 | 75 | 251 | 2.6 | 13.0 | 0.00 | 0.00 | 0.00 | 57 | |
| 20260904003716 | 74 | 261 | 11.3 | 13.0 | 0.00 | 0.00 | 0.00 | 56 | |
| 20260904003514 | 75 | 262 | 8.7 | 13.0 | 0.00 | 0.00 | 0.00 | 56 | |
| 20260904003311 | 75 | 253 | 7.0 | 13.0 | 0.00 | 0.00 | 0.00 | 56 | |
| 20260904003109 | 75 | 264 | 12.2 | 10.4 | 0.00 | 0.00 | 0.00 | 55 | |
| 20260904002907 | 75 | 278 | 6.1 | 10.4 | 0.00 | 0.00 | 0.00 | 55 | |
| 20260904002503 | 75 | 258 | 8.7 | 11.3 | 0.00 | 0.00 | 0.00 | 55 | |
| 20260904002306 | 75 | 255 | 7.0 | 11.3 | 0.00 | 0.00 | 0.00 | 55 | |
| 20260904002059 | 75 | 262 | 5.2 | 13.0 | 0.00 | 0.00 | 0.00 | 55 | |
| 20260904001857 | 75 | 261 | 9.6 | 13.0 | 0.00 | 0.00 | 0.00 | 56 | |
| 20260904001655 | 74 | 268 | 6.1 | 10.4 | 0.00 | 0.00 | 0.00 | 56 | |
| 20260904001453 | 75 | 260 | 7.8 | 10.4 | 0.00 | 0.00 | 0.00 | 56 | |
| 20260904001253 | 75 | 255 | 2.6 | 10.4 | 0.00 | 0.00 | 0.00 | 56 | |
| 20260904001049 | 75 | 272 | 7.0 | 12.2 | 0.00 | 0.00 | 0.00 | 56 | |
| 20260904000443 | 75 | 246 | 9.6 | 12.2 | 0.00 | 0.00 | 0.00 | 56 | |
| 20260904000241 | 75 | 265 | 10.4 | 13.9 | 0.00 | 0.00 | 0.00 | 56 | |
| 20260904000039 | 75 | 270 | 9.6 | 13.9 | 0.00 | 0.00 | 0.00 | 55 | |
| 20260903235837 | 76 | 285 | 6.1 | 13.9 | 0.00 | 0.00 | 0.00 | 54 | |
| 20260903235433 | 75 | 261 | 6.1 | 13.0 | 0.00 | 0.00 | 0.00 | 55 | |
| 20260903235231 | 75 | 251 | 7.0 | 13.9 | 0.00 | 0.00 | 0.00 | 55 | |
| 20260903235029 | 75 | 309 | 5.2 | 13.9 | 0.00 | 0.00 | 0.00 | 56 | |
| 20260903234827 | 75 | 255 | 11.3 | 13.9 | 0.00 | 0.00 | 0.00 | 55 | |
| 20260903234423 | 75 | 271 | 10.4 | 15.6 | 0.00 | 0.00 | 0.00 | 56 | |
| 20260903234224 | 75 | 251 | 11.3 | 14.8 | 0.00 | 0.00 | 0.00 | 55 | |
| 20260903234020 | 75 | 262 | 13.9 | 14.8 | 0.00 | 0.00 | 0.00 | 55 | |
| 20260903233616 | 75 | 257 | 12.2 | 14.8 | 0.00 | 0.00 | 0.00 | 53 | |
| 20260903233414 | 76 | 92 | 3.5 | 14.8 | 0.00 | 0.00 | 0.00 | 55 | |
| 20260903233212 | 75 | 255 | 7.0 | 14.8 | 0.00 | 0.00 | 0.00 | 56 | |
| 20260903232606 | 76 | 262 | 9.6 | 14.8 | 0.00 | 0.00 | 0.00 | 54 | |
| 20260903232404 | 76 | 262 | 11.3 | 14.8 | 0.00 | 0.00 | 0.00 | 54 | |
| 20260903231800 | 76 | 260 | 12.2 | 13.9 | 0.00 | 0.00 | 0.00 | 52 | |
| 20260903231558 | 76 | 248 | 8.7 | 13.0 | 0.00 | 0.00 | 0.00 | 53 | |
| 20260903231356 | 76 | 226 | 6.1 | 13.0 | 0.00 | 0.00 | 0.00 | 54 | |
| 20260903231154 | 76 | 275 | 8.7 | 13.9 | 0.00 | 0.00 | 0.00 | 55 | |
| 20260903230952 | 76 | 237 | 6.1 | 13.9 | 0.00 | 0.00 | 0.00 | 55 | |
| 20260903230750 | 76 | 246 | 10.4 | 13.9 | 0.00 | 0.00 | 0.00 | 53 | |
| 20260903230345 | 76 | 254 | 10.4 | 14.8 | 0.00 | 0.00 | 0.00 | 54 | |
| 20260903225942 | 77 | 261 | 7.0 | 14.8 | 0.00 | 0.00 | 0.00 | 52 | |
| 20260903225538 | 76 | 251 | 8.7 | 14.8 | 0.00 | 0.00 | 0.00 | 54 | |
| 20260903225337 | 76 | 247 | 8.7 | 14.8 | 0.00 | 0.00 | 0.00 | 55 | |
| 20260903225135 | 76 | 265 | 6.1 | 13.9 | 0.00 | 0.00 | 0.00 | 55 | |
| 20260903224931 | 77 | 270 | 11.3 | 13.9 | 0.00 | 0.00 | 0.00 | 55 | |
| 20260903224731 | 76 | 264 | 6.1 | 17.4 | 0.00 | 0.00 | 0.00 | 55 | |
| 20260903224529 | 77 | 277 | 10.4 | 17.4 | 0.00 | 0.00 | 0.00 | 55 | |
| 20260903224327 | 76 | 250 | 8.7 | 17.4 | 0.00 | 0.00 | 0.00 | 55 | |
| 20260903224125 | 77 | 262 | 13.0 | 15.6 | 0.00 | 0.00 | 0.00 | 54 | |
| 20260903223923 | 77 | 255 | 9.6 | 15.6 | 0.00 | 0.00 | 0.00 | 54 | |
| 20260903223721 | 77 | 268 | 8.7 | 14.8 | 0.00 | 0.00 | 0.00 | 54 | |
| 20260903223519 | 78 | 255 | 10.4 | 14.8 | 0.00 | 0.00 | 0.00 | 54 | |
| 20260903223316 | 78 | 250 | 9.6 | 14.8 | 0.00 | 0.00 | 0.00 | 54 | |
| 20260903223115 | 77 | 244 | 5.2 | 13.9 | 0.00 | 0.00 | 0.00 | 55 | |
| 20260903222911 | 77 | 270 | 8.7 | 13.9 | 0.00 | 0.00 | 0.00 | 56 | |
| 20260903222709 | 77 | 272 | 9.6 | 16.5 | 0.00 | 0.00 | 0.00 | 57 | |
| 20260903222508 | 76 | 253 | 7.8 | 16.5 | 0.00 | 0.00 | 0.00 | 57 | |
| 20260903222308 | 76 | 262 | 7.8 | 16.5 | 0.00 | 0.00 | 0.00 | 57 | |
| 20260903222105 | 77 | 265 | 5.2 | 13.9 | 0.00 | 0.00 | 0.00 | 57 | |
| 20260903221902 | 76 | 264 | 7.8 | 13.9 | 0.00 | 0.00 | 0.00 | 57 | |
| 20260903221701 | 76 | 274 | 9.6 | 13.9 | 0.00 | 0.00 | 0.00 | 57 | |
| 20260903221459 | 77 | 250 | 7.8 | 13.9 | 0.00 | 0.00 | 0.00 | 57 | |
| 20260903221257 | 77 | 254 | 7.8 | 13.9 | 0.00 | 0.00 | 0.00 | 56 | |
| 20260903221055 | 77 | 278 | 8.7 | 13.9 | 0.00 | 0.00 | 0.00 | 56 | |
| 20260903220854 | 77 | 237 | 10.4 | 13.9 | 0.00 | 0.00 | 0.00 | 56 | |
| 20260903220652 | 77 | 251 | 7.8 | 14.8 | 0.00 | 0.00 | 0.00 | 56 | |
| 20260903220249 | 77 | 270 | 7.0 | 14.8 | 0.00 | 0.00 | 0.00 | 56 | |
| 20260903220046 | 77 | 262 | 7.8 | 13.9 | 0.00 | 0.00 | 0.00 | 57 | |
| 20260903215844 | 77 | 291 | 8.7 | 13.9 | 0.00 | 0.00 | 0.00 | 56 | |
| 20260903215238 | 77 | 261 | 8.7 | 14.8 | 0.00 | 0.00 | 0.00 | 57 | |
| 20260903215036 | 77 | 288 | 8.7 | 14.8 | 0.00 | 0.00 | 0.00 | 57 | |
| 20260903214834 | 77 | 243 | 8.7 | 14.8 | 0.00 | 0.00 | 0.00 | 57 | |
| 20260903214632 | 78 | 267 | 9.6 | 13.9 | 0.00 | 0.00 | 0.00 | 56 | |
| 20260903214431 | 78 | 241 | 3.5 | 13.9 | 0.00 | 0.00 | 0.00 | 57 | |
| 20260903214228 | 77 | 264 | 5.2 | 13.0 | 0.00 | 0.00 | 0.00 | 58 | |
| 20260903214028 | 77 | 264 | 9.6 | 13.0 | 0.00 | 0.00 | 0.00 | 57 | |
| 20260903213825 | 77 | 274 | 3.5 | 13.0 | 0.00 | 0.00 | 0.00 | 57 | |
| 20260903213420 | 77 | 258 | 10.4 | 15.6 | 0.00 | 0.00 | 0.00 | 58 | |
| 20260903213218 | 77 | 272 | 7.8 | 13.0 | 0.00 | 0.00 | 0.00 | 58 | |
| 20260903213015 | 78 | 260 | 9.6 | 13.0 | 0.00 | 0.00 | 0.00 | 57 | |
| 20260903212814 | 78 | 246 | 7.8 | 13.0 | 0.00 | 0.00 | 0.00 | 56 | |
| 20260903212611 | 78 | 293 | 3.5 | 15.6 | 0.00 | 0.00 | 0.00 | 57 | |
| 20260903212411 | 78 | 223 | 7.8 | 15.6 | 0.00 | 0.00 | 0.00 | 57 | |
| 20260903212207 | 78 | 246 | 9.6 | 14.8 | 0.00 | 0.00 | 0.00 | 57 | |
| 20260903211603 | 77 | 261 | 13.9 | 13.9 | 0.00 | 0.00 | 0.00 | 58 | |
| 20260903211401 | 77 | 246 | 5.2 | 13.9 | 0.00 | 0.00 | 0.00 | 58 | |
| 20260903211159 | 78 | 253 | 12.2 | 15.6 | 0.00 | 0.00 | 0.00 | 56 | |
| 20260903210553 | 78 | 246 | 7.0 | 14.8 | 0.00 | 0.00 | 0.00 | 57 | |
| 20260903210350 | 78 | 281 | 9.6 | 14.8 | 0.00 | 0.00 | 0.00 | 56 | |
| 20260903210149 | 78 | 274 | 6.1 | 14.8 | 0.00 | 0.00 | 0.00 | 56 | |
| 20260903205945 | 78 | 275 | 7.8 | 14.8 | 0.00 | 0.00 | 0.00 | 56 | |
| 20260903205745 | 78 | 254 | 8.7 | 15.6 | 0.00 | 0.00 | 0.00 | 56 | |
| 20260903204936 | 77 | 278 | 6.1 | 20.0 | 0.00 | 0.00 | 0.00 | 57 | |
| 20260903204735 | 78 | 254 | 13.9 | 12.2 | 0.00 | 0.00 | 0.00 | 56 | |
| 20260903204534 | 79 | 279 | 10.4 | 12.2 | 0.00 | 0.00 | 0.00 | 55 | |
| 20260903204331 | 79 | 261 | 6.1 | 12.2 | 0.00 | 0.00 | 0.00 | 54 | |
| 20260903204130 | 79 | 255 | 3.5 | 14.8 | 0.00 | 0.00 | 0.00 | 55 | |
| 20260903203927 | 79 | 264 | 7.8 | 14.8 | 0.00 | 0.00 | 0.00 | 55 | |
| 20260903203724 | 78 | 265 | 8.7 | 13.9 | 0.00 | 0.00 | 0.00 | 55 | |
| 20260903203320 | 80 | 225 | 8.7 | 13.9 | 0.00 | 0.00 | 0.00 | 53 | |
| 20260903203120 | 80 | 234 | 7.0 | 14.8 | 0.00 | 0.00 | 0.00 | 53 | |
| 20260903202918 | 80 | 234 | 8.7 | 14.8 | 0.00 | 0.00 | 0.00 | 53 | |
| 20260903202716 | 80 | 268 | 7.0 | 14.8 | 0.00 | 0.00 | 0.00 | 52 | |
| 20260903202514 | 80 | 277 | 1.7 | 14.8 | 0.00 | 0.00 | 0.00 | 52 | |
| 20260903202312 | 80 | 261 | 4.3 | 14.8 | 0.00 | 0.00 | 0.00 | 52 | |
| 20260903202110 | 80 | 274 | 4.3 | 12.2 | 0.00 | 0.00 | 0.00 | 52 | |
| 20260903201908 | 80 | 244 | 13.0 | 12.2 | 0.00 | 0.00 | 0.00 | 51 | |
| 20260903201706 | 81 | 271 | 3.5 | 12.2 | 0.00 | 0.00 | 0.00 | 50 | |
| 20260903201504 | 81 | 243 | 4.3 | 12.2 | 0.00 | 0.00 | 0.00 | 50 | |
| 20260903201302 | 80 | 248 | 4.3 | 12.2 | 0.00 | 0.00 | 0.00 | 51 | |
| 20260903201058 | 80 | 257 | 6.1 | 12.2 | 0.00 | 0.00 | 0.00 | 52 | |
| 20260903200858 | 80 | 255 | 6.1 | 12.2 | 0.00 | 0.00 | 0.00 | 52 | |
| 20260903200656 | 80 | 264 | 9.6 | 13.0 | 0.00 | 0.00 | 0.00 | 51 | |
| 20260903200454 | 80 | 250 | 8.7 | 13.0 | 0.00 | 0.00 | 0.00 | 50 | |
| 20260903200252 | 80 | 296 | 7.0 | 13.0 | 0.00 | 0.00 | 0.00 | 50 | |
| 20260903195849 | 80 | 240 | 7.0 | 10.4 | 0.00 | 0.00 | 0.00 | 49 | |
| 20260903195646 | 80 | 247 | 7.0 | 10.4 | 0.00 | 0.00 | 0.00 | 50 | |
| 20260903195444 | 80 | 236 | 5.2 | 10.4 | 0.00 | 0.00 | 0.00 | 51 | |
| 20260903195241 | 80 | 264 | 7.8 | 13.9 | 0.00 | 0.00 | 0.00 | 50 | |
| 20260903195040 | 80 | 237 | 3.5 | 13.9 | 0.00 | 0.00 | 0.00 | 50 | |
| 20260903194837 | 80 | 265 | 7.0 | 13.9 | 0.00 | 0.00 | 0.00 | 50 | |
| 20260903194636 | 80 | 265 | 13.0 | 11.3 | 0.00 | 0.00 | 0.00 | 50 | |
| 20260903194231 | 80 | 241 | 7.8 | 12.2 | 0.00 | 0.00 | 0.00 | 49 | |
| 20260903194030 | 80 | 265 | 1.7 | 12.2 | 0.00 | 0.00 | 0.00 | 50 | |
| 20260903193628 | 80 | 270 | 10.4 | 13.0 | 0.00 | 0.00 | 0.00 | 49 | |
| 20260903193425 | 80 | 272 | 7.0 | 13.0 | 0.00 | 0.00 | 0.00 | 49 | |
| 20260903193019 | 80 | 254 | 11.3 | 12.2 | 0.00 | 0.00 | 0.00 | 49 | |
| 20260903192819 | 80 | 254 | 13.0 | 12.2 | 0.00 | 0.00 | 0.00 | 49 | |
| 20260903192615 | 80 | 250 | 7.8 | 13.0 | 0.00 | 0.00 | 0.00 | 49 | |
| 20260903192415 | 80 | 243 | 10.4 | 13.0 | 0.00 | 0.00 | 0.00 | 48 | |
| 20260903192213 | 80 | 239 | 7.8 | 13.0 | 0.00 | 0.00 | 0.00 | 48 | |
| 20260903192011 | 80 | 260 | 6.1 | 13.0 | 0.00 | 0.00 | 0.00 | 48 | |
| 20260903191807 | 80 | 288 | 2.6 | 13.0 | 0.00 | 0.00 | 0.00 | 47 | |
| 20260903191607 | 81 | 264 | 11.3 | 8.7 | 0.00 | 0.00 | 0.00 | 46 | |
| 20260903191405 | 82 | 278 | 7.0 | 8.7 | 0.00 | 0.00 | 0.00 | 45 | |
| 20260903191203 | 83 | 306 | 3.5 | 7.0 | 0.00 | 0.00 | 0.00 | 44 | |
| 20260903191001 | 83 | 258 | 1.7 | 7.0 | 0.00 | 0.00 | 0.00 | 44 | |
| 20260903190557 | 83 | 227 | 1.7 | 5.2 | 0.00 | 0.00 | 0.00 | 44 | |
| 20260903190356 | 83 | 281 | 6.1 | 5.2 | 0.00 | 0.00 | 0.00 | 44 | |
| 20260903190153 | 83 | 119 | 0.9 | 7.0 | 0.00 | 0.00 | 0.00 | 44 | |
| 20260903185951 | 83 | 94 | 3.5 | 7.0 | 0.00 | 0.00 | 0.00 | 44 | |
| 20260903185346 | 83 | 143 | 0.0 | 7.0 | 0.00 | 0.00 | 0.00 | 44 | |
| 20260903185144 | 83 | 104 | 3.5 | 5.2 | 0.00 | 0.00 | 0.00 | 43 | |
| 20260903184942 | 82 | 140 | 2.6 | 5.2 | 0.00 | 0.00 | 0.00 | 44 | |
| 20260903184738 | 83 | 144 | 2.6 | 4.3 | 0.00 | 0.00 | 0.00 | 44 | |
| 20260903184537 | 82 | 82 | 0.0 | 4.3 | 0.00 | 0.00 | 0.00 | 44 | |
| 20260903184336 | 82 | 160 | 0.9 | 4.3 | 0.00 | 0.00 | 0.00 | 44 | |
| 20260903184134 | 82 | 188 | 2.6 | 5.2 | 0.00 | 0.00 | 0.00 | 44 | |
| 20260903183932 | 82 | 11 | 1.7 | 5.2 | 0.00 | 0.00 | 0.00 | 45 | |
| 20260903183729 | 81 | 39 | 0.0 | 5.2 | 0.00 | 0.00 | 0.00 | 46 | |
| 20260903183528 | 81 | 336 | 0.9 | 5.2 | 0.00 | 0.00 | 0.00 | 46 | |
| 20260903183325 | 81 | 137 | 1.7 | 5.2 | 0.00 | 0.00 | 0.00 | 46 | |
| 20260903183124 | 80 | 122 | 0.9 | 4.3 | 0.00 | 0.00 | 0.00 | 46 | |
| 20260903182921 | 81 | 203 | 4.3 | 4.3 | 0.00 | 0.00 | 0.00 | 46 | |
| 20260903182718 | 81 | 168 | 1.7 | 7.8 | 0.00 | 0.00 | 0.00 | 46 | |
| 20260903182316 | 80 | 317 | 1.7 | 7.8 | 0.00 | 0.00 | 0.00 | 46 | |
| 20260903182114 | 80 | 229 | 3.5 | 7.0 | 0.00 | 0.00 | 0.00 | 47 | |
| 20260903181912 | 80 | 202 | 2.6 | 7.0 | 0.00 | 0.00 | 0.00 | 48 | |
| 20260903181710 | 80 | 102 | 0.0 | 7.0 | 0.00 | 0.00 | 0.00 | 48 | |
| 20260903181508 | 80 | 136 | 0.9 | 7.0 | 0.00 | 0.00 | 0.00 | 47 | |
| 20260903181306 | 80 | 92 | 3.5 | 7.0 | 0.00 | 0.00 | 0.00 | 47 | |
| 20260903181104 | 80 | 154 | 3.5 | 7.0 | 0.00 | 0.00 | 0.00 | 47 | |
| 20260903180700 | 80 | 130 | 3.5 | 5.2 | 0.00 | 0.00 | 0.00 | 48 | |
| 20260903180458 | 80 | 151 | 5.2 | 5.2 | 0.00 | 0.00 | 0.00 | 48 | |
| 20260903180256 | 80 | 150 | 0.9 | 5.2 | 0.00 | 0.00 | 0.00 | 48 | |
| 20260903180055 | 80 | 118 | 2.6 | 5.2 | 0.00 | 0.00 | 0.00 | 48 | |
| 20260903175853 | 80 | 42 | 0.0 | 5.2 | 0.00 | 0.00 | 0.00 | 48 | |
| 20260903175650 | 80 | 42 | 0.0 | 5.2 | 0.00 | 0.00 | 0.00 | 48 | |
| 20260903175448 | 80 | 88 | 2.6 | 5.2 | 0.00 | 0.00 | 0.00 | 48 | |
| 20260903175247 | 79 | 98 | 0.9 | 5.2 | 0.00 | 0.00 | 0.00 | 49 | |
| 20260903175044 | 79 | 116 | 0.0 | 6.1 | 0.00 | 0.00 | 0.00 | 50 | |
| 20260903174842 | 79 | 119 | 2.6 | 6.1 | 0.00 | 0.00 | 0.00 | 49 | |
| 20260903174641 | 79 | 82 | 0.9 | 3.5 | 0.00 | 0.00 | 0.00 | 50 |